, FL

(GMT )
Bonifay

Weather History for K1J0 - August, 2019

Change the Weather History Date:

Sunday, August 25, 2019

  Actual Average (WUND) Record (WUND)
Temperature  
Mean Temperature 83 °F -  
Max Temperature 93 °F - - (-1)
Min Temperature 73 °F - - (-1)
Cooling Degree Days 18    
Growing Degree Days 33 (Base 50)    
Moisture  
Dew Point 73 °F    
Average Humidity 84    
Maximum Humidity 97    
Minimum Humidity 50    
Precipitation  
Precipitation 0.00 in - - ()
Sea Level Pressure  
Sea Level Pressure 29.91 in    
Wind  
Wind Speed 4 mph (East)    
Max Wind Speed 14 mph    
Max Gust Speed 29 mph    
Visibility 10 miles    
Events Rain , Thunderstorm    
Averages and records for this station are not official NWS values.
T = Trace of Precipitation, MM = Missing Value Source: NWS Daily Summary

Daily Weather History Graph

Daily Weather History Graph

Search for Another Location

Airport or City:

Astronomy

Aug. 25, 2019 Rise Set
Actual Time 7:14 AM EDT 8:14 PM EDT
Civil Twilight 6:49 AM EDT 8:38 PM EDT
Nautical Twilight 6:20 AM EDT 9:08 PM EDT
Astronomical Twilight 5:49 AM EDT 9:38 PM EDT
Moon 2:00 AM EDT (8/25) 4:20 PM EDT (8/25)
Length of Visible Light 13h 49m
Length of Day
12h 59m
Waning Crescent, 29% of the Moon is Illuminated
Aug 25
Waning Crescent
Aug 30
New
Sep 5
First Quarter
Sep 14
Full
Sep 21
Last Quarter

Hourly Weather History & Observations

Time (EDT) Temp. Heat Index Dew Point Humidity Pressure Visibility Wind Dir Wind Speed Gust Speed Precip Events Conditions
12:58 AM 79.0 °F - 73.0 °F 82% 29.89 in 10.0 mi East 4.6 mph - N/A   Partly Cloudy
1:58 AM 78.1 °F - 73.0 °F 84% 29.86 in 10.0 mi Calm Calm - N/A   Clear
2:58 AM 75.9 °F - 73.0 °F 91% 29.83 in 10.0 mi Calm Calm - N/A   Clear
3:58 AM 75.0 °F - 72.0 °F 90% 29.82 in 10.0 mi Calm Calm - N/A   Clear
4:58 AM 73.9 °F - 72.0 °F 93% 29.83 in 10.0 mi NE 3.5 mph - N/A   Clear
5:58 AM 73.9 °F - 72.0 °F 93% 29.85 in 10.0 mi NE 3.5 mph - N/A   Partly Cloudy
6:08 AM 73.9 °F - 73.0 °F 97% 29.97 in 10.0 mi ENE 6.9 mph - N/A   Mostly Cloudy
6:23 AM 75.0 °F - 73.0 °F 94% 29.97 in 10.0 mi ENE 4.6 mph - N/A   Overcast
6:38 AM 73.9 °F - 72.0 °F 93% 29.97 in 10.0 mi ENE 3.5 mph - N/A   Scattered Clouds
6:58 AM 73.9 °F - 72.0 °F 93% 29.85 in 10.0 mi Calm Calm - N/A   Clear
7:11 AM 73.9 °F - 72.0 °F 93% 29.98 in 10.0 mi NE 3.5 mph - N/A   Partly Cloudy
7:20 AM 73.9 °F - 73.0 °F 97% 29.98 in 10.0 mi ENE 3.5 mph - N/A   Mostly Cloudy
7:58 AM 75.0 °F - 73.0 °F 94% 29.87 in 10.0 mi ENE 3.5 mph - N/A   Overcast
8:00 AM - - - N/A% - - North - - N/A   Unknown
8:54 AM 78.1 °F - 73.0 °F 84% 30.01 in 10.0 mi ENE 6.9 mph - N/A   Scattered Clouds
8:58 AM 78.1 °F - 73.0 °F 84% 29.88 in 10.0 mi NE 4.6 mph - N/A   Scattered Clouds
9:37 AM 80.1 °F 84.5 °F 73.9 °F 81% 30.01 in 10.0 mi East 5.8 mph - N/A   Mostly Cloudy
9:58 AM 81.0 °F 86.2 °F 73.9 °F 79% 29.89 in 10.0 mi ESE 6.9 mph - N/A   Mostly Cloudy
10:58 AM 81.0 °F 86.2 °F 73.9 °F 79% 29.89 in 10.0 mi ENE 6.9 mph - N/A   Overcast
11:41 AM 86.0 °F 93.8 °F 73.9 °F 67% 30.02 in 10.0 mi ENE 8.1 mph - N/A   Overcast
11:58 AM 84.9 °F 92.1 °F 73.9 °F 69% 29.90 in 10.0 mi East 6.9 mph - N/A   Mostly Cloudy
12:24 PM 86.0 °F 93.8 °F 73.9 °F 67% 30.01 in 10.0 mi East 8.1 mph - N/A   Scattered Clouds
1:46 PM 90.0 °F 99.0 °F 73.9 °F 59% 29.99 in 10.0 mi ENE 6.9 mph - N/A   Scattered Clouds
1:58 PM 90.0 °F 99.0 °F 73.9 °F 59% 29.87 in 10.0 mi ESE 8.1 mph - N/A   Partly Cloudy
2:58 PM 91.9 °F 101.3 °F 73.9 °F 55% 29.83 in 10.0 mi Variable 5.8 mph - N/A   Partly Cloudy
3:58 PM 93.0 °F 100.7 °F 72.0 °F 50% 29.81 in 10.0 mi East 9.2 mph - N/A   Scattered Clouds
4:26 PM 89.1 °F 97.0 °F 73.0 °F 59% 29.94 in 10.0 mi ESE 4.6 mph - N/A Thunderstorm Thunderstorm
4:49 PM 79.0 °F - 72.0 °F 79% 29.97 in 10.0 mi South 13.8 mph 28.8 mph N/A Thunderstorm Thunderstorm
4:58 PM 78.1 °F - 73.0 °F 84% 29.85 in 10.0 mi South 13.8 mph 24.2 mph 0.00 in Rain , Thunderstorm Light Thunderstorms and Rain
5:58 PM 75.0 °F - 73.0 °F 94% 29.82 in 4.0 mi Calm Calm - 0.00 in Rain , Thunderstorm Thunderstorms and Rain
6:13 PM 75.0 °F - 72.0 °F 90% 29.95 in 3.0 mi Calm Calm - N/A Rain Rain
7:30 PM 75.9 °F - 73.9 °F 94% 29.94 in 10.0 mi Calm Calm - N/A Thunderstorm Thunderstorm
7:58 PM 77.0 °F - 73.9 °F 90% 29.82 in 10.0 mi Calm Calm - N/A   Clear
8:58 PM 75.0 °F - 73.9 °F 96% 29.85 in 10.0 mi NE 3.5 mph - N/A   Clear
9:58 PM 75.0 °F - 73.0 °F 94% 29.87 in 10.0 mi ENE 5.8 mph - N/A   Mostly Cloudy
10:58 PM 75.0 °F - 73.0 °F 94% 29.88 in 10.0 mi East 3.5 mph - N/A   Partly Cloudy
11:31 PM 75.0 °F - 73.0 °F 94% 30.00 in 10.0 mi Calm Calm - N/A Thunderstorm Thunderstorm
11:46 PM 75.0 °F - 73.0 °F 94% 29.99 in 10.0 mi Calm Calm - N/A   Clear
11:56 PM 75.2 °F - 73.4 °F 94% 29.99 in 10.0 mi Calm Calm - N/A Thunderstorm Thunderstorm
11:58 PM 75.0 °F - 73.9 °F 96% 29.87 in 10.0 mi Calm Calm - N/A Thunderstorm Thunderstorm